H-2A R/B (43682 NORAD) Tracking and Keplerian Element Data

This shows tracking and keplerian element data for the satellite.

Feedback or suggestion? Click here.




ElementValue
Catalog43682
NameH-2A R/B
Epoch Orbit222
Epoch Day317.33531666
Epoch Year2018
RAAN69.5438
Inclination98.8549
Eccentricity0.0056874
Argument of Perigee238.7761
Mean Anonmoly120.788
Mean Motion15.0246365
Decay Rate1.082E-05
L11 43682U 18084L 18317.33531666 .00001082 00000-0 84949-4 0 9996
L22 43682 98.8549 69.5438 0056874 238.7761 120.7880 15.02463650 2221

Live tracking and technical data element details for H-2A R/B (NORAD 43682). H-2A R/B can be tracked NOW for your location showing map with azimuth and elevation plus other details from your city location.

Track the satellite on the map from your city or location and see movement details for azimuth, elevation, latitude, longitude, range, height, and movement on the map or in text.







IsCatalogInMostPopularTable: catalog: 43682, numindb: 5
Update: records affected: 1



GetName: 43682 H-2A R/B

Hit Count: updated at: Thu, 15 Nov 2018 04:32:59 GMT